USA 325

Last updated on Sat Sep 13 2025 00:02:50 GMT+0000 (Coordinated Universal Time)

1 51281U 22006B 25254.10232617 -.00000071 00000+0 00000+0 0 9994 2 51281 0.2196 89.5647 0001061 147.0276 220.9101 1.00391799 13335
UTC large
Height (km)
Speed (km/s)
/
Latitude / Longitude
Inclination (degrees)
Orbital Period (minutes)
Azimuth
Elevation
Range (km)
Doppler Factor

Next 0 passes for location: London (51.5072 / 0.1276)

Sorry there are no passes over London.